GW3006 Weather Reports


time (UTC)temp
C
wind
direction
speed
KPH
gust
KPH
rain 1hr
cm
rain 24hr
cm
rain mn
cm
humidity
%
barometer
mb
20260506175403 12 359 6.4 14.5 0.00 0.00 0.00 80 1008.2
20260506174503 12 359 6.4 14.5 0.00 0.00 0.00 79 1008.0
20260506173603 12 349 6.4 11.3 0.00 0.00 0.00 78 1008.1
20260506172704 12 356 6.4 14.5 0.00 0.00 0.00 78 1008.1
20260506171803 12 352 6.4 16.1 0.00 0.00 0.00 76 1007.9
20260506170903 12 2 6.4 16.1 0.00 0.00 0.00 77 1008.0
20260506170003 12 3 6.4 14.5 0.00 0.00 0.00 78 1007.9
20260506165403 12 355 6.4 12.9 0.00 0.00 0.00 78 1007.9
20260506164525 12 356 6.4 17.7 0.00 0.00 0.00 78 1007.8
20260506163603 13 356 8.0 14.5 0.00 0.00 0.00 77 1007.8
20260506162703 13 1 8.0 22.5 0.00 0.00 0.00 76 1007.6
20260506161803 13 1 8.0 22.5 0.00 0.00 0.00 75 1007.4
20260506160903 13 357 8.0 16.1 0.00 0.00 0.00 73 1007.6
20260506160024 13 352 8.0 19.3 0.00 0.00 0.00 72 1007.6
20260506155424 13 358 8.0 22.5 0.00 0.00 0.00 71 1007.6
20260506154503 13 352 8.0 17.7 0.00 0.00 0.00 71 1007.4
20260506153603 13 355 9.7 17.7 0.00 0.00 0.00 74 1007.6
20260506152703 13 357 8.0 19.3 0.00 0.00 0.00 75 1007.6
20260506151803 13 356 8.0 17.7 0.00 0.00 0.00 75 1007.6
20260506150903 13 352 8.0 17.7 0.00 0.00 0.00 75 1007.5
20260506150003 13 348 8.0 14.5 0.00 0.00 0.00 73 1007.5
20260506145424 13 352 8.0 16.1 0.00 0.00 0.00 73 1007.5
20260506144524 13 358 8.0 14.5 0.00 0.00 0.00 73 1007.6
20260506143603 13 6 9.7 17.7 0.00 0.00 0.00 73 1007.4
20260506142703 13 359 8.0 17.7 0.00 0.00 0.00 74 1007.5
20260506141803 14 360 8.0 17.7 0.00 0.00 0.00 72 1007.2
20260506140903 14 359 8.0 16.1 0.00 0.00 0.00 72 1007.3
20260506140003 13 3 8.0 22.5 0.00 0.00 0.00 72 1007.2
20260506135403 14 4 6.4 16.1 0.00 0.00 0.00 70 1007.2
20260506134503 14 7 8.0 22.5 0.00 0.00 0.00 70 1007.1
20260506133603 13 350 6.4 16.1 0.00 0.00 0.00 70 1007.2
20260506132703 13 360 8.0 17.7 0.00 0.00 0.00 71 1007.2
20260506131803 14 353 6.4 16.1 0.00 0.00 0.00 70 1007.3
20260506130903 13 357 6.4 16.1 0.00 0.00 0.00 72 1007.2
20260506130005 14 348 8.0 16.1 0.00 0.00 0.00 69 1007.1
20260506125424 13 355 6.4 16.1 0.00 0.00 0.00 72 1007.2
20260506124503 13 355 6.4 12.9 0.00 0.00 0.00 75 1007.2
20260506123603 13 1 6.4 14.5 0.00 0.00 0.00 75 1007.0
20260506122704 13 5 6.4 17.7 0.00 0.00 0.00 77 1007.1
20260506121824 13 358 8.0 16.1 0.00 0.00 0.00 77 1007.2
20260506120903 13 347 8.0 14.5 0.00 0.00 0.00 78 1007.1
20260506120003 12 349 6.4 17.7 0.00 0.00 0.00 79 1007.0
20260506115403 13 1 6.4 17.7 0.00 0.00 0.00 79 1007.0
20260506114503 12 345 6.4 14.5 0.00 0.00 0.00 79 1007.1
20260506113603 12 3 8.0 14.5 0.00 0.00 0.00 80 1007.3
20260506112703 12 4 8.0 19.3 0.00 0.00 0.00 80 1007.3
20260506111824 12 358 9.7 17.7 0.00 0.00 0.00 80 1007.1
20260506110905 13 4 6.4 16.1 0.00 0.00 0.00 79 1007.1
20260506110003 12 3 9.7 17.7 0.00 0.00 0.00 80 1007.0
20260506105404 12 359 8.0 16.1 0.00 0.00 0.00 80 1007.1
20260506104503 12 1 8.0 17.7 0.00 0.00 0.00 80 1007.0
20260506103603 12 4 6.4 14.5 0.00 0.00 0.00 81 1007.1
20260506102703 11 353 8.0 19.3 0.00 0.00 0.00 82 1007.0
20260506101803 11 358 8.0 16.1 0.00 0.00 0.00 83 1006.9
20260506100903 11 358 8.0 17.7 0.00 0.00 0.00 84 1007.1
20260506100004 11 1 8.0 16.1 0.00 0.00 0.00 84 1007.0
20260506095403 11 359 6.4 16.1 0.00 0.00 0.00 85 1007.2
20260506094503 10 355 4.8 14.5 0.00 0.00 0.00 86 1007.0
20260506093604 10 13 4.8 12.9 0.00 0.00 0.00 87 1007.1
20260506092704 11 8 6.4 17.7 0.00 0.00 0.00 84 1007.1
20260506091824 11 7 8.0 17.7 0.00 0.00 0.00 84 1006.9
20260506090903 11 353 8.0 19.3 0.00 0.00 0.00 82 1006.9
20260506090024 11 8 6.4 14.5 0.00 0.00 0.00 80 1006.9
20260506085403 11 7 6.4 17.7 0.00 0.00 0.00 80 1006.7
20260506084503 11 357 8.0 16.1 0.00 0.00 0.00 80 1006.8
20260506083603 11 7 6.4 14.5 0.00 0.00 0.00 82 1006.6
20260506082703 11 1 9.7 22.5 0.00 0.00 0.00 82 1006.4
20260506081803 11 360 9.7 17.7 0.00 0.00 0.00 81 1006.7
20260506080903 11 358 8.0 14.5 0.00 0.00 0.00 81 1006.5
20260506072703 11 360 8.0 19.3 0.00 0.00 0.00 82 1006.1
20260506071803 11 355 8.0 17.7 0.00 0.00 0.00 83 1006.3
20260506070903 11 9 8.0 16.1 0.00 0.00 0.00 82 1006.2
20260506061803 10 5 6.4 19.3 0.00 0.00 0.00 84 1006.0
20260506060903 10 2 4.8 11.3 0.00 0.00 0.00 86 1006.1
20260506050903 8 2 3.2 6.4 0.00 0.00 0.00 86 1005.8
20260506044503 8 5 3.2 9.7 0.00 0.00 0.00 87 1005.7
20260506043603 8 12 3.2 6.4 0.00 0.00 0.00 87 1006.1
20260506042704 8 12 1.6 4.8 0.00 0.00 0.00 87 1006.1
20260506041803 8 10 1.6 4.8 0.00 0.00 0.00 86 1006.1
20260506040924 8 11 3.2 4.8 0.00 0.00 0.00 85 1006.1
20260506040003 8 7 3.2 4.8 0.00 0.00 0.00 85 1006.2
20260506035403 8 11 3.2 4.8 0.00 0.00 0.00 85 1006.0
20260506034503 8 10 3.2 9.7 0.00 0.00 0.00 84 1006.0
20260506033603 9 10 3.2 6.4 0.00 0.00 0.00 84 1006.4
20260506032724 9 12 3.2 9.7 0.00 0.00 0.00 84 1006.1
20260506031804 9 9 3.2 6.4 0.00 0.00 0.00 84 1006.1
20260506030903 9 7 3.2 6.4 0.00 0.00 0.00 84 1006.2
20260506030003 9 6 4.8 9.7 0.00 0.00 0.00 84 1006.3
20260506025403 9 7 4.8 11.3 0.00 0.00 0.00 84 1006.3
20260506024503 9 358 4.8 9.7 0.00 0.00 0.00 85 1006.3
20260506023604 9 1 3.2 6.4 0.00 0.00 0.00 85 1006.3
20260506022703 8 10 3.2 9.7 0.00 0.00 0.00 85 1006.1
20260506021803 9 6 3.2 9.7 0.00 0.00 0.00 85 1006.2
20260506020924 9 1 4.8 11.3 0.00 0.00 0.00 85 1006.6
20260506020004 8 14 3.2 9.7 0.00 0.00 0.00 85 1006.3
20260506015403 8 10 3.2 9.7 0.00 0.00 0.00 85 1006.3
20260506014524 9 9 6.4 11.3 0.00 0.00 0.00 86 1006.3
20260506013603 8 12 4.8 11.3 0.00 0.00 0.00 86 1006.5
20260506012724 8 10 3.2 11.3 0.00 0.00 0.00 87 1006.3
20260506011803 8 14 3.2 9.7 0.00 0.00 0.00 87 1006.4
20260506010904 8 14 3.2 6.4 0.00 0.00 0.00 87 1006.6
20260506010004 9 8 4.8 9.7 0.00 0.00 0.00 87 1006.7
20260506005424 9 7 4.8 11.3 0.00 0.00 0.00 86 1006.5
20260506004503 9 13 3.2 9.7 0.00 0.00 0.00 86 1006.7
20260506003603 9 5 4.8 9.7 0.00 0.00 0.00 86 1006.6
20260506002703 9 5 4.8 11.3 0.00 0.00 0.00 85 1006.8
20260506001824 9 7 3.2 9.7 0.00 0.00 0.00 85 1006.6
20260506000904 10 10 4.8 12.9 0.00 0.00 0.00 84 1006.9
20260506000005 10 16 4.8 12.9 0.00 0.00 0.00 84 1006.7
20260505235403 10 8 3.2 11.3 0.00 0.00 0.00 85 1007.2
20260505234503 10 8 4.8 12.9 0.00 0.00 0.00 85 1007.0
20260505233604 10 8 4.8 14.5 0.00 0.00 0.00 85 1006.8
20260505232703 10 5 4.8 14.5 0.00 0.00 0.00 85 1006.9
20260505231803 10 10 4.8 12.9 0.00 0.00 0.00 86 1007.1
20260505230903 10 6 4.8 11.3 0.00 0.00 0.00 86 1006.9
20260505230003 10 13 4.8 11.3 0.00 0.00 0.00 87 1006.7
20260505225426 10 5 3.2 6.4 0.00 0.00 0.00 87 1007.0
20260505224503 10 360 3.2 6.4 0.00 0.00 0.00 87 1007.1
20260505223603 10 11 3.2 9.7 0.00 0.00 0.00 87 1007.1
20260505222704 10 4 3.2 6.4 0.00 0.00 0.00 87 1007.0
20260505221803 10 14 3.2 9.7 0.00 0.00 0.00 87 1006.9
20260505220903 10 5 4.8 9.7 0.00 0.00 0.00 86 1007.1
20260505220024 10 4 4.8 12.9 0.00 0.00 0.00 86 1007.1
20260505215424 10 3 4.8 12.9 0.00 0.00 0.00 86 1007.0
20260505214503 10 5 4.8 9.7 0.00 0.00 0.00 86 1007.0
20260505213604 10 1 4.8 11.3 0.00 0.00 0.00 86 1007.0
20260505212725 10 359 4.8 11.3 0.00 0.00 0.00 86 1007.3
20260505211803 10 3 4.8 11.3 0.00 0.00 0.00 85 1007.0
20260505210903 10 11 3.2 9.7 0.00 0.00 0.00 85 1006.6
20260505210003 10 1 4.8 12.9 0.00 0.00 0.00 85 1007.0
20260505205424 10 10 4.8 12.9 0.00 0.00 0.00 85 1007.4
20260505204504 10 2 4.8 12.9 0.00 0.00 0.00 85 1006.9
20260505203604 10 360 6.4 14.5 0.00 0.00 0.00 85 1007.0
20260505202725 11 356 4.8 12.9 0.00 0.00 0.00 85 1007.0
20260505201803 11 3 6.4 17.7 0.00 0.00 0.00 85 1006.9
20260505200903 11 6 6.4 17.7 0.00 0.00 0.00 85 1006.8
20260505200003 11 3 6.4 12.9 0.00 0.00 0.00 85 1006.8
20260505195404 11 8 4.8 11.3 0.00 0.00 0.00 85 1006.8
20260505194503 11 16 4.8 12.9 0.00 0.00 0.00 85 1006.8
20260505193603 11 2 6.4 12.9 0.00 0.00 0.00 84 1006.8
20260505192703 11 3 6.4 12.9 0.00 0.00 0.00 84 1006.6
20260505191824 11 355 6.4 11.3 0.00 0.00 0.00 83 1006.4
20260505190903 11 9 6.4 14.5 0.00 0.00 0.00 83 1006.5
20260505190003 11 8 6.4 12.9 0.00 0.00 0.00 83 1006.5
20260505185403 11 2 8.0 14.5 0.00 0.00 0.00 82 1006.6
20260505184505 11 358 6.4 12.9 0.00 0.00 0.00 82 1006.4
20260505183603 12 357 6.4 14.5 0.00 0.00 0.00 82 1006.6
20260505182703 12 6 6.4 17.7 0.00 0.00 0.00 81 1006.5
20260505181804 12 5 6.4 17.7 0.00 0.00 0.00 80 1006.3
20260505180903 12 8 6.4 14.5 0.00 0.00 0.00 79 1006.5
20260505180003 12 7 8.0 22.5 0.00 0.00 0.00 79 1006.4